Starlink 5747

operational
NORAD ID: 55574 Int'l Des: 2023-020 Owner: SPXS Country: US Constellation: starlink
LEOCIRCULAR

Starlink 5747について

説明を読み込み中...

リアルタイム位置

3D地球を読み込み中...

次回通過

高度履歴

Altitude vs Time

uPlot chart will show altitude changes over time

軌道要素

1 55574U 23020F 25305.49428309 .00000049 00000-0 18670-4 0 9996
2 55574 43.0055 341.3662 0001360 270.1611 89.9075 15.02532386149634
Epoch: Nov 1, 2025 • Age: 20 hours

現在のステータス

高度 561.8 km
速度 7.59 km/s
衛星直下点 36.89°N, 51.08°W
打ち上げ日 Feb 12, 2023
運用期間 2.7 years
タイプ internet

技術仕様

分類 Payload
質量 305.00 kg
乾燥質量 290.00 kg
総質量 305.00 kg
長さ 0.20 m
直径 2.80 m
スパン 9.00 m
形状 Box + pan
製造者 SPXS
バスタイプ Starlink
フェーズステータス In Orbit
所有者/国 SPXS/US

大規模コンステレーション

Loading constellations...